Regional Weather Roundup
Issued by NWS

Home | Current Version | Previous Version | Graphics & Text | Print | Product List | Glossary Off
Versions: 1 2 3 4 5 6 7 8 9 10 11 12 13 14 15 16 17 18 19 20 21 22 23 24 25 26 27 28 29 30 31 32 33 34 35 36 37 38 39 40 41 42 43 44 45 46 47 48 49 50

000
ASUS43 KMKX 262221
RWRWI

WISCONSIN REGIONAL WEATHER ROUNDUP
NATIONAL WEATHER SERVICE MILWAUKEE/SULLIVAN WI
500 PM CDT WED JUL 26 2017

NOTE: "FAIR" INDICATES FEW OR NO CLOUDS BELOW 12,000 FEET WITH NO
SIGNIFICANT WEATHER AND/OR OBSTRUCTIONS TO VISIBILITY.

WIZ001-002-006>008-014>016-023>028-262300-
NORTHWEST WISCONSIN

CITY           SKY/WX    TMP DP  RH WIND       PRES   REMARKS
SUPERIOR ARPT  NOT AVBL
ASHLAND        FAIR      81  62  52 NW10      29.97S HX  82
HAYWARD        FAIR      81  58  45 VRB5      29.99S HX  81
SIREN          FAIR      82  58  43 NW7       29.99S HX  82
CUMBERLAND     FAIR      79  59  50 NW8       29.99S HX  80
RICE LAKE      FAIR      81  59  47 W6        30.00S HX  81
CHETEK         FAIR      81  61  51 NW3       29.98F HX  82
LADYSMITH      FAIR      81  62  51 N8        30.00R HX  82
EAU CLAIRE     PTSUNNY   78  71  79 S3        29.96F HX  80
MENOMONIE      FAIR      80  68  66 NW10      29.98S HX  82
NEW RICHMOND   FAIR      80  60  50 N6        29.99S HX  81
OSCEOLA        FAIR      82  58  43 NW8       30.01S HX  82
$$

WIZ003>005-009-010-017-018-262300-
NORTH CENTRAL WISCONSIN

CITY           SKY/WX    TMP DP  RH WIND       PRES   REMARKS
MANITOWISH WTR PTSUNNY   78  60  54 N9        29.98S
ARBOR VITAE    FAIR      80  61  52 NW7       29.97S HX  81
WOODRUFF       FAIR      80  61  52 NW7       29.97S HX  81
RHINELANDER    FAIR      79  64  60 NW7       29.98F HX  81
EAGLE RIVER    FAIR      80  56  43 NW10      29.97S HX  80
LAND O LAKES   FAIR      80  52  37 N10G16    29.99S HX  80
PHILLIPS       FAIR      79  60  52 NW7       29.97S HX  80
TOMAHAWK       NOT AVBL
MEDFORD        CLOUDY    73  67  83 SW6       29.99F
MERRILL        FAIR      75  70  83 W6        29.98F
$$

WIZ029-030-035-036-043>047-262300-
CENTRAL WISCONSIN

CITY           SKY/WX    TMP DP  RH WIND       PRES   REMARKS
WAUSAU         CLOUDY    74  69  85 SW9       29.97S
MOSINEE        PTSUNNY   73  70  88 W8        30.00S
MARSHFIELD     PTSUNNY   74  67  78 W8        29.99S
STEVENS POINT  FAIR      74  69  86 W6        29.98S
WAUPACA        LGT RAIN  79  71  76 CALM      29.96F HX  82
WAUTOMA        FAIR      78  73  84 S5        29.98R HX  81
WISC RAPIDS    FAIR      76  71  85 W7        29.99F
CAMP DOUGLAS   PTSUNNY   77  72  83 S7        29.97F
$$

WIZ011>013-019>022-031-037>040-048>050-262300-
NORTHEAST WISCONSIN

CITY           SKY/WX    TMP DP  RH WIND       PRES   REMARKS
ANTIGO         PTSUNNY   75  69  81 W6        29.98F
SHAWANO        PTSUNNY   78  69  75 W3        29.95F HX  80
OCONTO         CLOUDY    75  70  84 SW5       29.95F
STURGEON BAY     N/A     75  71  87 SW7       29.97S
GREEN BAY      LGT RAIN  76  75  97 S7        29.95F
MANITOWOC      LGT RAIN  75  71  87 S7        30.01R
APPLETON       CLOUDY    77  70  78 VRB6      29.95F
CLINTONVILLE   CLOUDY   N/A N/A N/A SW6       29.96R
OSHKOSH        FAIR      75  73  93 S8        29.96F FOG
$$

WIZ032>034-041-042-053>061-262300-
SOUTHWEST WISCONSIN

CITY           SKY/WX    TMP DP  RH WIND       PRES   REMARKS
LA CROSSE      PTSUNNY   81  72  74 CALM      29.95F HX  85
SPARTA         PTSUNNY   78  70  76 CALM      29.97S HX  80
VIROQUA        CLOUDY    76  71  83 CALM      29.98F
BOSCOBEL       FAIR      80  73  79 CALM      29.97F HX  84
PRAIRIE DU CHI LGT RAIN  78  71  79 N3        29.96F
PLATTEVILLE    FAIR      78  76  94 CALM      29.98F HX  81
$$

WIZ056-057-062-063-064-067-068-262300-
SOUTH CENTRAL WISCONSIN

CITY           SKY/WX    TMP DP  RH WIND       PRES   REMARKS
REEDSBURG      PTSUNNY   75  74  98 SE3       29.96F
BARABOO/DELLS  LGT RAIN  74  70  89 CALM      29.99S
LONE ROCK      PTSUNNY   74  72  93 E6        29.97F
MINERAL POINT  CLOUDY    75  75 100 CALM      30.00S FOG
MADISON        CLOUDY    75  71  87 NE5       29.97F
MIDDLETON      CLOUDY    75  73  93 N7        30.00R
WATERTOWN      RAIN      73  73 100 CALM      30.00F
MONROE         PTSUNNY   79  72  78 S5        29.98S HX  82
JANESVILLE     CLOUDY    82  73  74 SW6       29.97F HX  88
$$

WIZ051-052-058>065-066-070>072-262300-
SOUTHEAST WISCONSIN

CITY           SKY/WX    TMP DP  RH WIND       PRES   REMARKS
MILWAUKEE      CLOUDY    83  71  67 SW10      29.98F HX  87
WAUKESHA       CLOUDY    73  72  94 N6        30.01F THUNDER
MILWAUKEE/TIMM RAIN      75  68  78 N6        30.01S
RACINE         FAIR      79  70  74 S8        30.00F HX  82
KENOSHA        FAIR      82  71  69 SE9       29.99F HX  86
FOND DU LAC    LGT RAIN  75  71  87 S13       29.98F FOG
SHEBOYGAN      LGT RAIN  74  73  97 SW10      30.03R
WEST BEND      LGT RAIN  72  72 100 NW7       30.03R
JUNEAU         LGT RAIN  71  70  96 E3        30.00F
$$

LSZ147-162-262300-
LAKE SUPERIOR

STATION/POSITION TIME  TEMP    WIND        PRES    WAVE
                       AIR SEA DIR/SP/G            HT/PER
                 (UTC) (F)     (DEG/KT/KT) (MB)    (FT/S)
W MID LAKE BUOY  2150   60 52  250/ 10/ 12 1013.5S   1
DEVILS ISLAND    2200   71     240/ 14/ 16 1013.9R
PORT WING        1940   77     260/ 10/ 13 1014.6
SAXON HARBOR     2140   79      CALM  /  1 1014.6S
$$

LMZ867-665-643>646-262300-
LAKE MICHIGAN

STATION/POSITION TIME  TEMP    WIND        PRES    WAVE
                       AIR SEA DIR/SP/G            HT/PER
                 (UTC) (F)     (DEG/KT/KT) (MB)    (FT/S)
CHAMBERS ISLAND  2140   73     190/  7/ 13 1013.5R
S GREEN BAY BUOY 2200   74 71  240/  8/  8 1014.3
N MID LAKE BUOY  2150   67 65  200/ 17/ 23 1014.0F   4/ 6
NORTHPORT PIER   2140   71     180/  6/ 11 1013.9S
KEWAUNEE LAKESHO 2154   72     190/  6/  6 1014.2S
SHEBOYGAN LAKESH 2200   72     230/  8/ 10 1016.3R
PORT WASHINGTON  2130   71     160/  4/  6 1016.9R
ATWATER BUOY     2109   70 69   80/  4/  4 1016.0F
MILWAUKEE LAKESH 2200   71      10/  6/  7   N/A
S MID LAKE BUOY  2150   73 71  140/ 10/ 10 1015.7F   1/ 4
KENOSHA   LAKESH 2200   73     170/ 10/ 10 1014.9
$$

TC  - TEMPERATURE IN CELSIUS
VSB - VISIBILITY IN STATUTE MILES
WCI - WIND CHILL INDEX
HX  - HEAT INDEX




USA.gov is the U.S. government's official web portal to all federal, state and local government web resources and services.